User: anonymous   Login
Location: Ar Ranvel
(48.3000°N, 4.8833°W)
Time: 08:23:32
(UTC+00:00)
Language:

COSMOS 2251 DEB - Orbit

View from above orbital plane
View from above orbital plane
View from above satellite
View from above satellite

Ground track
Ground track

The orbit data is extracted from the following two-line orbital elements,

1 36071U 93036AYJ 22028.33223729  .00001830  00000-0  46907-3 0  9994
2 36071  74.0335 247.8046 0027532 290.3207  69.4996 14.50829927441856
Epoch (UTC): 28 January 2022 07:58:25
Eccentricity: 0.0027532
inclination: 74.0335°
perigee height: 703 km
apogee height: 742 km
right ascension of ascending node: 247.8046°
argument of perigee: 290.3207°
revolutions per day: 14.50829927
mean anomaly at epoch: 69.4996°
orbit number at epoch: 44185

The dashed part of the orbit path shows where the satellite is in the earth's shadow,  

DLR